KD8DNS Weather Reports


Display with metric or nautical units.
time (UTC)temp
F
wind
direction
speed
MPH
gust
MPH
rain 1hr
in
rain 24hr
in
rain mn
in
humidity
%
barometer
mb
20260507103511 0 7 0.0 0.0 0.00 0.00 0.00 1017.0
20260507103008 0 7 0.0 0.0 0.00 0.00 0.00 1016.9
20260507102505 0 7 0.0 0.0 0.00 0.00 0.00 1016.9
20260507102001 0 8 0.0 0.0 0.00 0.00 0.00 1016.9
20260507101456 0 8 0.0 0.0 0.00 0.00 0.00 1017.0
20260507100953 0 7 0.0 0.0 0.00 0.00 0.00 1017.1
20260507100450 0 8 0.0 0.0 0.00 0.00 0.00 1017.1
20260507095948 0 8 0.0 0.0 0.00 0.00 0.00 1017.1
20260507095446 0 6 0.0 0.0 0.00 0.00 0.00 1016.9
20260507094942 0 6 0.0 0.0 0.00 0.00 0.00 1016.9
20260507094438 0 8 0.0 0.0 0.00 0.00 0.00 1016.8
20260507093935 0 7 0.0 0.0 0.00 0.00 0.00 1016.9
20260507093433 0 8 0.0 0.0 0.00 0.00 0.00 1016.8
20260507092931 0 8 0.0 0.0 0.00 0.00 0.00 1016.8
20260507092427 0 8 0.0 0.0 0.00 0.00 0.00 1016.7
20260507091924 0 7 0.0 0.0 0.00 0.00 0.00 1016.7
20260507091421 0 9 0.0 0.0 0.00 0.00 0.00 1016.9
20260507090916 0 7 0.0 0.0 0.00 0.00 0.00 1016.6
20260507090412 0 7 0.0 0.0 0.00 0.00 0.00 1016.4
20260507085909 0 7 0.0 0.0 0.00 0.00 0.00 1016.9
20260507085406 0 7 0.0 0.0 0.00 0.00 0.00 1016.7
20260507084904 0 8 0.0 0.0 0.00 0.00 0.00 1016.6
20260507084400 0 8 0.0 0.0 0.00 0.00 0.00 1016.5
20260507083857 0 8 0.0 0.0 0.00 0.00 0.00 1016.7
20260507083354 0 8 0.0 0.0 0.00 0.00 0.00 1016.8
20260507082850 0 8 0.0 0.0 0.00 0.00 0.00 1016.7
20260507082345 0 8 0.0 0.0 0.00 0.00 0.00 1016.7
20260507081843 0 6 0.0 0.0 0.00 0.00 0.00 1016.8
20260507081339 0 8 0.0 0.0 0.00 0.00 0.00 1016.7
20260507080836 0 13 0.0 0.0 0.00 0.00 0.00 1016.7
20260507080332 0 6 0.0 0.0 0.00 0.00 0.00 1016.6
20260507075828 0 6 0.0 0.0 0.00 0.00 0.00 1016.8
20260507075324 0 6 0.0 0.0 0.00 0.00 0.00 1016.6
20260507074821 0 6 0.0 0.0 0.00 0.00 0.00 1016.6
20260507074318 0 11 0.0 0.0 0.00 0.00 0.00 1016.9
20260507073815 0 13 0.0 0.0 0.00 0.00 0.00 1016.7
20260507073312 0 16 0.0 0.0 0.00 0.00 0.00 1016.6
20260507072809 0 6 0.0 0.0 0.00 0.00 0.00 1016.7
20260507072308 0 6 0.0 0.0 0.00 0.00 0.00 1016.7
20260507071804 0 6 0.0 0.0 0.00 0.00 0.00 1016.6
20260507071300 0 7 0.0 0.0 0.00 0.00 0.00 1016.8
20260507070757 0 7 0.0 0.0 0.00 0.00 0.00 1016.5
20260507070254 0 6 0.0 0.0 0.00 0.00 0.00 1016.8
20260507065750 0 6 0.0 0.0 0.00 0.00 0.00 1016.7
20260507065247 0 7 0.0 0.0 0.00 0.00 0.00 1016.5
20260507064744 0 7 0.0 0.0 0.00 0.00 0.00 1016.9
20260507064243 0 6 0.0 0.0 0.00 0.00 0.00 1016.7
20260507063740 0 6 0.0 0.0 0.00 0.00 0.00 1016.9
20260507063237 0 6 0.0 0.0 0.00 0.00 0.00 1016.8
20260507062734 0 7 0.0 0.0 0.00 0.00 0.00 1016.8
20260507062231 0 6 0.0 0.0 0.00 0.00 0.00 1016.8
20260507061730 0 9 0.0 0.0 0.00 0.00 0.00 1016.8
20260507061227 0 9 0.0 0.0 0.00 0.00 0.00 1016.6
20260507060725 0 9 0.0 0.0 0.00 0.00 0.00 1016.6
20260507060221 0 9 0.0 0.0 0.00 0.00 0.00 1016.8
20260507055718 0 9 0.0 0.0 0.00 0.00 0.00 1016.9
20260507055213 0 9 0.0 0.0 0.00 0.00 0.00 1016.8
20260507054709 0 9 0.0 0.0 0.00 0.00 0.00 1016.8
20260507054206 0 9 0.0 0.0 0.00 0.00 0.00 1016.8
20260507053704 0 9 0.0 0.0 0.00 0.00 0.00 1017.0
20260507053202 0 9 0.0 0.0 0.00 0.00 0.00 1017.1
20260507052701 0 9 0.0 0.0 0.00 0.00 0.00 1017.1
20260507052156 0 9 0.0 0.0 0.00 0.00 0.00 1016.9
20260507051654 0 9 0.0 0.0 0.00 0.00 0.00 1017.3
20260507051150 0 9 0.0 0.0 0.00 0.00 0.00 1017.4
20260507050647 0 9 0.0 0.0 0.00 0.00 0.00 1017.3
20260507050144 0 9 0.0 0.0 0.00 0.00 0.00 1017.3
20260507045641 0 9 0.0 0.0 0.00 0.00 0.00 1017.3
20260507045137 0 9 0.0 0.0 0.00 0.00 0.00 1017.1
20260507044634 0 9 0.0 0.0 0.00 0.00 0.00 1017.1
20260507044131 0 9 0.0 0.0 0.00 0.00 0.00 1017.4
20260507043627 0 13 0.0 0.0 0.00 0.00 0.00 1017.4
20260507043125 0 13 0.0 0.0 0.00 0.00 0.00 1017.3
20260507042621 0 13 0.0 0.0 0.00 0.00 0.00 1017.3
20260507042116 0 13 0.0 0.0 0.00 0.00 0.00 1017.3
20260507041613 0 13 0.0 0.0 0.00 0.00 0.00 1017.1
20260507041110 0 15 0.0 0.0 0.00 0.00 0.00 1016.9
20260507040607 0 10 0.0 0.0 0.00 0.00 0.00 1016.9
20260507040103 0 9 0.0 0.0 0.00 0.00 0.00 1017.1
20260507035559 0 9 0.0 0.0 0.00 0.42 0.42 1017.3
20260507035055 0 9 0.0 0.0 0.00 0.42 0.42 1017.0
20260507034552 0 9 0.0 0.0 0.00 0.42 0.42 1017.1
20260507034050 0 10 0.0 0.0 0.00 0.42 0.42 1017.0
20260507033547 0 10 0.0 0.0 0.00 0.42 0.42 1017.0
20260507033039 0 12 0.0 0.0 0.00 0.42 0.42 1016.9
20260507032536 0 12 0.0 0.0 0.00 0.42 0.42 1017.3
20260507032032 0 12 0.0 0.0 0.00 0.42 0.42 1017.4
20260507031528 0 10 0.0 0.0 0.00 0.42 0.42 1017.3
20260507031026 0 10 0.0 0.0 0.00 0.42 0.42 1017.5
20260507030523 0 10 0.0 0.0 0.00 0.42 0.42 1017.5
20260507030021 0 11 0.0 0.0 0.00 0.42 0.42 1017.5
20260507025517 0 11 0.0 0.0 0.00 0.42 0.42 1017.1
20260507025015 0 14 0.0 0.0 0.00 0.42 0.42 1017.3
20260507024512 0 14 0.0 0.0 0.00 0.42 0.42 1017.4
20260507024009 0 14 0.0 0.0 0.00 0.42 0.42 1017.3
20260507023505 0 14 0.0 0.0 0.00 0.42 0.42 1017.3
20260507023003 0 14 0.0 0.0 0.00 0.42 0.42 1017.3
20260507022459 0 14 0.0 0.0 0.00 0.42 0.42 1017.1
20260507021954 0 14 0.0 0.0 0.00 0.42 0.42 1017.1
20260507021450 0 14 0.0 0.0 0.00 0.42 0.42 1017.3
20260507020947 0 14 0.0 0.0 0.00 0.42 0.42 1017.0
20260507020444 0 14 0.0 0.0 0.00 0.42 0.42 1017.1
20260507015941 0 15 0.0 0.0 0.00 0.42 0.42 1017.3
20260507015439 0 11 0.0 0.0 0.00 0.42 0.42 1017.0
20260507014930 0 19 0.0 0.0 0.00 0.42 0.42 1016.6
20260507014427 0 19 0.0 1.0 0.00 0.42 0.42 1016.8
20260507013923 0 21 0.0 0.0 0.00 0.42 0.42 1016.7
20260507013420 0 22 0.0 0.0 0.00 0.42 0.42 1016.5
20260507012918 0 12 0.0 0.0 0.00 0.42 0.42 1016.3
20260507012414 0 28 0.0 1.0 0.00 0.42 0.42 1016.6
20260507011911 0 27 0.0 0.0 0.00 0.42 0.42 1016.3
20260507011408 0 24 0.0 0.0 0.00 0.42 0.42 1016.4
20260507010908 0 19 0.0 0.0 0.00 0.42 0.42 1016.4
20260507010403 0 25 0.0 1.0 0.00 0.42 0.42 1016.4
20260507005900 0 17 0.0 0.0 0.00 0.42 0.42 1016.8
20260507005357 0 26 0.0 1.0 0.00 0.42 0.42 1016.5
20260507004848 0 32 0.0 1.0 0.00 0.42 0.42 1016.9
20260507004345 0 22 1.0 2.0 0.00 0.42 0.42 1016.7
20260507003843 0 49 0.0 3.0 0.00 0.42 0.42 1016.3
20260507003338 0 23 2.0 3.0 0.00 0.42 0.42 1016.3
20260507002833 0 9 0.0 3.0 0.00 0.42 0.42 1016.4
20260507002329 0 55 1.0 5.0 0.00 0.42 0.42 1016.2
20260507001827 0 21 0.0 3.0 0.00 0.42 0.42 1016.0
20260507001324 0 17 0.0 2.0 0.00 0.42 0.42 1015.9
20260507000820 0 68 2.0 5.0 0.00 0.42 0.42 1015.9
20260507000316 0 23 1.0 3.0 0.00 0.42 0.42 1015.7
20260506235813 0 69 2.0 3.0 0.00 0.42 0.42 1015.6
20260506235309 0 58 2.0 3.0 0.00 0.42 0.42 1015.8
20260506234805 0 24 1.0 5.0 0.00 0.42 0.42 1015.5
20260506234303 0 67 2.0 2.0 0.00 0.42 0.42 1015.5
20260506233800 0 19 1.0 2.0 0.00 0.42 0.42 1015.4
20260506233256 0 55 2.0 5.0 0.00 0.42 0.42 1015.1
20260506232753 0 21 1.0 6.0 0.00 0.42 0.42 1015.2
20260506232248 0 42 1.0 2.0 0.00 0.42 0.42 1015.4
20260506231745 0 56 2.0 2.0 0.00 0.42 0.42 1015.2
20260506231244 0 4 1.0 3.0 0.00 0.42 0.42 1015.6
20260506230740 0 29 0.0 7.0 0.00 0.42 0.42 1015.4
20260506230237 0 14 2.0 5.0 0.00 0.42 0.42 1015.4
20260506225734 0 19 1.0 2.0 0.00 0.42 0.42 1015.5
20260506225231 0 16 2.0 3.0 0.00 0.42 0.42 1015.6
20260506224727 0 110 3.0 3.0 0.00 0.42 0.42 1015.6
20260506224224 0 21 2.0 6.0 0.00 0.42 0.42 1015.6
20260506223721 0 88 4.0 6.0 0.00 0.42 0.42 1015.7
20260506223216 0 339 1.0 2.0 0.00 0.42 0.42 1015.8
20260506222714 0 338 3.0 6.0 0.00 0.42 0.42 1015.9
20260506222209 0 43 3.0 6.0 0.00 0.42 0.42 1016.1
20260506221707 0 18 1.0 5.0 0.00 0.42 0.42 1015.6
20260506221205 0 30 1.0 2.0 0.00 0.42 0.42 1015.8
20260506220702 0 85 1.0 2.0 0.00 0.42 0.42 1016.1
20260506220157 0 353 0.0 6.0 0.00 0.42 0.42 1015.8
20260506215654 0 344 2.0 7.0 0.00 0.42 0.42 1015.9
20260506215149 0 80 1.0 7.0 0.00 0.42 0.42 1015.5
20260506214646 0 348 2.0 3.0 0.00 0.42 0.42 1015.5
20260506214143 0 45 2.0 6.0 0.00 0.42 0.42 1015.3
20260506213642 0 16 0.0 3.0 0.00 0.42 0.42 1015.3
20260506213139 0 8 0.0 2.0 0.00 0.42 0.42 1015.0
20260506212636 0 72 2.0 3.0 0.00 0.42 0.42 1015.0
20260506212130 0 80 3.0 6.0 0.00 0.42 0.42 1015.1
20260506211626 0 21 0.0 3.0 0.00 0.42 0.42 1015.2
20260506211123 0 108 2.0 2.0 0.00 0.42 0.42 1014.9
20260506210620 0 314 1.0 6.0 0.00 0.42 0.42 1015.0
20260506210117 0 10 0.0 1.0 0.00 0.42 0.42 1014.8
20260506205614 0 49 2.0 6.0 0.00 0.42 0.42 1014.7
20260506205108 0 7 0.0 2.0 0.00 0.42 0.42 1015.0
20260506204607 0 18 1.0 7.0 0.00 0.42 0.42 1014.8
20260506204103 0 21 1.0 3.0 0.00 0.42 0.42 1015.0
20260506203602 0 118 4.0 5.0 0.00 0.42 0.42 1015.1
20260506203058 0 41 2.0 3.0 0.00 0.42 0.42 1014.9
20260506202556 0 341 4.0 5.0 0.00 0.42 0.42 1015.1
20260506202052 0 25 1.0 3.0 0.00 0.42 0.42 1014.9
20260506201549 0 31 1.0 2.0 0.00 0.42 0.42 1015.2
20260506201046 0 4 3.0 3.0 0.00 0.42 0.42 1014.9
20260506200542 0 45 2.0 5.0 0.00 0.42 0.42 1014.8
20260506200039 0 24 4.0 6.0 0.00 0.42 0.42 1014.9
20260506195536 0 27 1.0 2.0 0.00 0.42 0.42 1015.0
20260506195032 0 71 4.0 6.0 0.00 0.42 0.42 1014.8
20260506194530 0 53 2.0 5.0 0.00 0.42 0.42 1015.0
20260506194026 0 222 2.0 2.0 0.00 0.42 0.42 1015.0
20260506193523 0 1 3.0 7.0 0.00 0.42 0.42 1015.0
20260506193020 0 15 2.0 6.0 0.00 0.42 0.42 1015.0
20260506192517 0 10 1.0 5.0 0.00 0.42 0.42 1014.8
20260506192013 0 9 1.0 3.0 0.00 0.42 0.42 1014.6
20260506191510 0 351 1.0 6.0 0.00 0.42 0.42 1014.8
20260506191006 0 43 2.0 3.0 0.00 0.42 0.42 1014.6
20260506190503 0 31 3.0 6.0 0.00 0.42 0.42 1014.7
20260506190000 0 340 1.0 3.0 0.00 0.42 0.42 1014.8
20260506185458 0 71 5.0 9.0 0.00 0.42 0.42 1014.9
20260506184954 0 349 1.0 2.0 0.00 0.42 0.42 1015.1
20260506184451 0 342 1.0 6.0 0.00 0.42 0.42 1015.1
20260506183943 0 31 1.0 6.0 0.00 0.42 0.42 1014.9
20260506183438 0 65 2.0 3.0 0.00 0.42 0.42 1015.0
20260506182936 0 49 2.0 3.0 0.00 0.42 0.42 1015.0
20260506182433 0 28 1.0 5.0 0.00 0.42 0.42 1014.8
20260506181930 0 351 1.0 2.0 0.00 0.42 0.42 1014.7
20260506181427 0 42 0.0 3.0 0.00 0.42 0.42 1014.8
20260506180918 0 325 1.0 5.0 0.00 0.42 0.42 1015.2
20260506180415 0 260 1.0 5.0 0.00 0.42 0.42 1015.0
20260506175912 0 353 0.0 5.0 0.00 0.42 0.42 1015.2
20260506175409 0 20 3.0 7.0 0.00 0.42 0.42 1014.7
20260506174905 0 355 2.0 6.0 0.00 0.42 0.42 1015.0
20260506174403 0 2 0.0 3.0 0.00 0.42 0.42 1015.2
20260506173900 0 46 1.0 5.0 0.00 0.42 0.42 1015.1
20260506173357 0 69 4.0 5.0 0.00 0.42 0.42 1015.3
20260506172854 0 55 6.0 9.0 0.00 0.42 0.42 1014.8
20260506172350 0 84 1.0 5.0 0.00 0.42 0.42 1015.1
20260506171848 0 97 2.0 7.0 0.00 0.42 0.42 1015.4
20260506171344 0 35 0.0 3.0 0.00 0.42 0.42 1015.1
20260506170842 0 93 2.0 8.0 0.00 0.42 0.42 1015.4
20260506170337 0 32 2.0 3.0 0.00 0.42 0.42 1015.3
20260506165831 0 203 3.0 5.0 0.00 0.42 0.42 1015.1
20260506165328 0 56 3.0 5.0 0.00 0.42 0.42 1015.0
20260506164819 0 4 1.0 5.0 0.00 0.42 0.42 1015.0
20260506164316 0 24 1.0 8.0 0.00 0.42 0.42 1014.9
20260506163814 0 2 3.0 3.0 0.00 0.42 0.42 1015.1
20260506163308 0 67 1.0 3.0 0.00 0.42 0.42 1014.9
20260506162803 0 114 0.0 6.0 0.00 0.42 0.42 1015.3
20260506162302 0 163 2.0 2.0 0.00 0.42 0.42 1015.1
20260506161753 0 357 5.0 6.0 0.00 0.42 0.42 1015.3
20260506161250 0 191 2.0 5.0 0.00 0.42 0.42 1015.4
20260506160748 0 98 0.0 3.0 0.00 0.42 0.42 1015.3
20260506160244 0 75 2.0 7.0 0.00 0.42 0.42 1015.1
20260506155743 0 19 1.0 5.0 0.00 0.42 0.42 1015.2
20260506155239 0 42 3.0 7.0 0.00 0.42 0.42 1015.2
20260506153347 0 74 1.0 3.0 0.00 0.42 0.42 1014.9
20260506152844 0 10 1.0 3.0 0.00 0.42 0.42 1014.8
20260506152341 0 99 1.0 3.0 0.00 0.42 0.42 1014.7
20260506151839 0 64 2.0 5.0 0.00 0.42 0.42 1014.5
20260506151336 0 45 2.0 5.0 0.00 0.42 0.42 1014.7
20260506150833 0 10 1.0 6.0 0.00 0.42 0.42 1014.5
20260506150330 0 116 3.0 5.0 0.00 0.42 0.42 1014.8
20260506145826 0 125 2.0 5.0 0.00 0.42 0.42 1014.3
20260506145323 0 60 1.0 5.0 0.00 0.42 0.42 1014.4
20260506144821 0 57 2.0 2.0 0.00 0.42 0.42 1014.2
20260506144317 0 197 3.0 6.0 0.00 0.42 0.42 1014.1
20260506143816 0 38 1.0 2.0 0.00 0.42 0.42 1014.1
20260506143312 0 94 3.0 6.0 0.00 0.42 0.42 1014.1
20260506142810 0 141 3.0 3.0 0.00 0.42 0.42 1014.3
20260506142308 0 133 4.0 6.0 0.00 0.42 0.42 1014.4
20260506141806 0 34 2.0 3.0 0.00 0.42 0.42 1013.9
20260506141304 0 351 2.0 5.0 0.00 0.42 0.42 1013.8
20260506140802 0 58 2.0 6.0 0.00 0.42 0.42 1014.0
20260506140258 0 33 2.0 3.0 0.00 0.42 0.42 1014.1
20260506135755 0 80 3.0 5.0 0.00 0.42 0.42 1013.7
20260506135251 0 20 0.0 6.0 0.00 0.42 0.42 1013.5
20260506134748 0 100 3.0 5.0 0.00 0.42 0.42 1013.8
20260506134244 0 357 0.0 7.0 0.00 0.42 0.42 1013.3
20260506133742 0 27 1.0 2.0 0.00 0.42 0.42 1013.3
20260506133238 0 21 1.0 2.0 0.00 0.42 0.42 1013.7
20260506132735 0 47 1.0 3.0 0.00 0.42 0.42 1013.8
20260506132233 0 73 2.0 2.0 0.00 0.42 0.42 1013.4
20260506131731 0 99 1.0 3.0 0.00 0.42 0.42 1013.7
20260506131226 0 28 2.0 6.0 0.00 0.42 0.42 1013.4
20260506130723 0 34 1.0 5.0 0.00 0.42 0.42 1013.3
20260506130220 0 63 2.0 2.0 0.00 0.42 0.42 1013.0
20260506125718 0 17 1.0 5.0 0.00 0.42 0.42 1013.1
20260506125216 0 122 1.0 6.0 0.00 0.42 0.42 1013.1
20260506124714 0 25 3.0 8.0 0.00 0.42 0.42 1013.1
20260506124212 0 125 2.0 5.0 0.00 0.42 0.42 1013.1
20260506123708 0 30 2.0 5.0 0.00 0.42 0.42 1012.8
20260506123207 0 29 2.0 2.0 0.00 0.42 0.42 1012.8
20260506122704 0 35 1.0 2.0 0.00 0.42 0.42 1012.7
20260506122201 0 47 1.0 2.0 0.00 0.42 0.42 1012.7
20260506121659 0 42 1.0 2.0 0.00 0.42 0.42 1012.8
20260506121155 0 63 2.0 3.0 0.00 0.42 0.42 1012.6
20260506120653 0 36 1.0 3.0 0.00 0.42 0.42 1012.4
20260506120150 0 4 1.0 6.0 0.00 0.42 0.42 1012.1
20260506115649 0 89 2.0 3.0 0.00 0.42 0.42 1012.2
20260506115146 0 74 4.0 6.0 0.00 0.42 0.42 1012.6
20260506114643 0 40 1.0 5.0 0.00 0.42 0.42 1012.5
20260506114141 0 20 2.0 3.0 0.00 0.42 0.42 1012.3
20260506113640 0 59 3.0 5.0 0.00 0.42 0.42 1012.2
20260506113136 0 32 1.0 2.0 0.00 0.42 0.42 1011.7
20260506112632 0 28 0.0 5.0 0.00 0.42 0.42 1011.5
20260506112130 0 84 1.0 3.0 0.05 0.42 0.42 1011.9
20260506111628 0 43 3.0 3.0 0.05 0.42 0.42 1011.6
20260506111125 0 10 1.0 2.0 0.00 0.41 0.41 1011.6
20260506110622 0 40 1.0 2.0 0.00 0.41 0.41 1011.2
20260506110120 0 358 0.0 3.0 0.00 0.41 0.41 1010.8
20260506105616 0 23 3.0 6.0 0.00 0.41 0.41 1010.7
20260506105113 0 43 2.0 3.0 0.00 0.41 0.41 1010.9
20260506104611 0 4 0.0 1.0 0.00 0.41 0.41 1010.6
20260506104108 0 0 1.0 2.0 0.00 0.41 0.41 1010.6